Volver al catálogo

STARLINK-32243

ActivoComunicacionesVLEO
NORAD 60367·PAYLOAD·🇺🇸 United States

Lanzado Aug 4, 2024 desde Vandenberg Space Force Base

Loading…

Próximos Pases (próximas 24 horas)

TLE

ActualizadoSource: CelesTrak SupGP

Época: Sep 15, 2026, 02:40 UTC

1 60367C 24138N   26258.11159722  .00064494  00000+0  20737-2 0  2586
2 60367  53.1572 148.6757 0001048  80.3072 300.2879 15.31673622    14

Sigue STARLINK-32243 en tiempo real con AllMySat

Download on the App Store